Tracking 29494 objects as of 7-Sep-2024
HD Live streaming from Space Station
objects crossing your sky now

STARLINK-5420

Track STARLINK-5420 now!
10-day predictions
STARLINK-5420 is classified as:


NORAD ID: 54798
Int'l Code: 2022-175AS
Perigee: 546.0 km
Apogee: 547.8 km
Inclination: 53.2 °
Period: 95.4 minutes
Semi major axis: 6917 km
RCS: Unknown
Launch date: December 17, 2022
Source: United States (US)
Launch site: AIR FORCE EASTERN TEST RANGE (AFETR)
Your satellite tracking list
Your tracking list is empty




NASA's NSSDC Master Catalog

Two Line Element Set (TLE):
1 54798U 22175AS  24251.48791196  .00000543  00000-0  52200-4 0  9994
2 54798  53.2185 319.8613 0001351  90.5061 269.6086 15.08838599 97516
Source of the keplerian elements: AFSPC